Starlink 34150

operational
NORAD ID: 63998 Int'l Des: 2025-101 Owner: SPXS Country: US Constellation: starlink
LEOCIRCULAR

关于 Starlink 34150

正在加载描述...

实时位置

正在加载3D地球...

即将过境

高度历史

Altitude vs Time

uPlot chart will show altitude changes over time

两行轨道根数

1 63998U 25101E 26062.28790336 .00045212 00000-0 16417-2 0 9993
2 63998 43.0039 34.3384 0001574 259.4429 100.6246 15.27595328 46076
Epoch: Mar 3, 2026 • Age: 25 hours

当前状态

高度 482.0 km
速度 7.63 km/s
星下点 11.23°N, 22.83°E
发射日期 May 14, 2025
运行时间 0.8 years
类型 internet

技术详情

分类 Payload
质量 575.00 kg
干质量 530.00 kg
总质量 575.00 kg
长度 0.30 m
直径 4.10 m
跨度 29.00 m
形状 Box + pan
制造商 SPXS
平台类型 Starlink V2MO
阶段状态 In Orbit
所有者/国家 SPXS/US

大型星座

Loading constellations...